Flag for Gaza Strip Weather past 2 weeks in Khan Yunis, Gaza Strip

Now
77 °F

Clear.


Feels Like: 78 °F
Forecast: 79 / 88 °F
Wind: No wind

Location: El Arish

Current Time: Sep 3, 2015 at 3:38:44 AM

Latest Report: Sep 3, 2015 at 3:00 AM


Visibility: 10 mi

Pressure: 29.86 "Hg

Humidity: 100%

Dew point: 77 °F

Location of Khan YunisLocation

Historic Weather in Khan Yunis — Graph

°F

Khan Yunis temperature yesterday

Maximum temperature yesterday: 91 °F (at 11:00 AM)
Minimum temperature yesterday: 73 °F (at 4:00 AM)
Average temperature yesterday: 82 °F

Past Weeks' High & Low Weather Summary

 TemperatureHumidityPressure
High95 °F (Aug 20, 2:00 PM)100% (Aug 19, 6:00 AM)29.92 "Hg (Aug 19, 6:00 AM)
Low72 °F (Aug 20, 6:00 AM)34% (Aug 25, 1:00 PM)29.71 "Hg (Aug 23, 6:00 PM)
Average82 °F76%29.82 "Hg
* Reported Aug 19 2:00 AM — Sep 3 2:00 AM, Khan Yunis, Weather by CustomWeather, © 2015

Note: Actual official high and low records may vary slightly from our data, if they occured in-between our weather recording intervals... More about our weather records

Advertising

Khan Yunis weather history for previous 24 hours

 ConditionsComfort  
Time TempWeatherWind HumidityBarometerVisibility
2:00 AM
Thu, Sep 3
77 °FClear.No wind100%29.86 "Hg10 mi
1:00 AM77 °FClear.No wind100%29.86 "Hg10 mi
10:00 PM
Wed, Sep 2
82 °FClear.3 mph84%29.89 "Hg10 mi
9:00 PM82 °FPassing clouds.5 mph89%29.86 "HgN/A
8:00 PM82 °FPassing clouds.7 mph84%29.86 "HgN/A
7:00 PM84 °FPassing clouds.7 mph84%29.83 "HgN/A
6:00 PM88 °FSunny.9 mph75%29.83 "Hg10 mi
5:00 PM90 °FSunny.9 mph67%29.83 "Hg10 mi
1:00 PM91 °FPassing clouds.5 mph56%29.86 "HgN/A
12:00 PM91 °FScattered clouds.8 mph56%29.86 "HgN/A
11:00 AM91 °FPartly sunny.No wind56%29.89 "HgN/A
10:00 AM90 °FPartly sunny.1 mph63%29.89 "HgN/A
9:00 AM86 °FSunny.No wind89%29.86 "Hg10 mi
8:00 AM81 °FSunny.3 mph94%29.86 "Hg10 mi
7:00 AM73 °FSunny.2 mph100%29.86 "Hg10 mi
6:00 AM73 °FClear.2 mph100%29.86 "Hg10 mi
5:00 AM73 °FClear.No wind100%29.83 "Hg10 mi
4:00 AM73 °FClear.No wind100%29.83 "Hg10 mi
3:00 AM75 °FClear.No wind100%29.86 "Hg10 mi
Weather by CustomWeather, © 2015

See weather overviewHow to use our weather pages